GW1714 Weather Reports


Display with metric or nautical units.
time (UTC)temp
F
wind
direction
speed
MPH
gust
MPH
rain 1hr
in
rain 24hr
in
rain mn
in
humidity
%
barometer
mb
20260503223613 67 24 0.0 3.0 0.00 0.00 0.00 36 1034.8
20260503223108 67 19 0.0 5.0 0.00 0.00 0.00 35 1034.8
20260503222606 68 14 0.0 5.0 0.00 0.00 0.00 36 1034.8
20260503222104 69 90 0.0 3.0 0.00 0.00 0.00 37 1035.1
20260503221602 68 75 1.0 5.0 0.00 0.00 0.00 38 1035.0
20260503221059 66 165 4.0 6.0 0.00 0.00 0.00 38 1035.0
20260503220555 66 143 2.0 3.0 0.00 0.00 0.00 39 1034.9
20260503220052 67 8 6.0 6.0 0.00 0.00 0.00 37 1035.2
20260503215549 67 148 0.0 7.0 0.00 0.00 0.00 38 1035.2
20260503215046 67 18 3.0 6.0 0.00 0.00 0.00 36 1035.2
20260503214544 68 96 0.0 6.0 0.00 0.00 0.00 37 1035.4
20260503214040 67 12 2.0 7.0 0.00 0.00 0.00 37 1035.4
20260503213539 68 6 1.0 4.0 0.00 0.00 0.00 39 1035.4
20260503213035 68 26 2.0 5.0 0.00 0.00 0.00 36 1035.3
20260503212533 68 25 0.0 6.0 0.00 0.00 0.00 36 1035.4
20260503212030 69 20 0.0 3.0 0.00 0.00 0.00 34 1035.5
20260503211527 70 35 4.0 4.0 0.00 0.00 0.00 35 1035.4
20260503211022 67 141 3.0 5.0 0.00 0.00 0.00 38 1035.4
20260503210520 67 14 3.0 8.0 0.00 0.00 0.00 37 1035.4
20260503210015 68 23 3.0 3.0 0.00 0.00 0.00 36 1035.4
20260503205512 68 106 0.0 2.0 0.00 0.00 0.00 35 1035.5
20260503205009 67 163 3.0 5.0 0.00 0.00 0.00 38 1035.7
20260503204506 67 15 0.0 6.0 0.00 0.00 0.00 34 1035.7
20260503204003 67 0 4.0 10.0 0.00 0.00 0.00 36 1035.7
20260503203500 68 33 4.0 5.0 0.00 0.00 0.00 37 1035.9
20260503202956 67 40 2.0 5.0 0.00 0.00 0.00 40 1035.9
20260503202455 67 151 1.0 4.0 0.00 0.00 0.00 41 1036.1
20260503201953 67 180 1.0 2.0 0.00 0.00 0.00 38 1036.0
20260503201450 66 97 0.0 3.0 0.00 0.00 0.00 38 1036.0
20260503200947 67 135 3.0 4.0 0.00 0.00 0.00 38 1036.4
20260503200444 68 166 3.0 3.0 0.00 0.00 0.00 38 1036.3
20260503195940 66 138 3.0 4.0 0.00 0.00 0.00 40 1036.5
20260503195438 68 328 2.0 5.0 0.00 0.00 0.00 36 1036.3
20260503194934 69 90 0.0 4.0 0.00 0.00 0.00 35 1036.5
20260503194431 69 28 3.0 3.0 0.00 0.00 0.00 38 1036.5
20260503193926 64 8 2.0 4.0 0.00 0.00 0.00 38 1036.6
20260503193422 64 166 0.0 5.0 0.00 0.00 0.00 39 1036.6
20260503192917 63 184 2.0 6.0 0.00 0.00 0.00 39 1036.6
20260503192414 65 168 2.0 7.0 0.00 0.00 0.00 43 1037.0
20260503191910 65 72 4.0 4.0 0.00 0.00 0.00 39 1036.7
20260503191408 65 157 0.0 2.0 0.00 0.00 0.00 39 1036.9
20260503190904 64 144 2.0 6.0 0.00 0.00 0.00 40 1037.0
20260503190401 66 154 3.0 3.0 0.00 0.00 0.00 40 1037.3
20260503185858 64 161 4.0 6.0 0.00 0.00 0.00 40 1037.0
20260503185354 66 150 2.0 4.0 0.00 0.00 0.00 38 1037.0
20260503184854 65 68 2.0 5.0 0.00 0.00 0.00 39 1037.4
20260503184350 64 154 4.0 5.0 0.00 0.00 0.00 43 1037.4
20260503183846 65 135 2.0 2.0 0.00 0.00 0.00 40 1037.1
20260503183344 64 3 2.0 5.0 0.00 0.00 0.00 41 1037.4
20260503182841 63 152 2.0 3.0 0.00 0.00 0.00 45 1037.5
20260503182340 63 23 0.0 3.0 0.00 0.00 0.00 41 1037.4
20260503181837 62 165 2.0 2.0 0.00 0.00 0.00 43 1037.5
20260503181333 62 180 0.0 3.0 0.00 0.00 0.00 43 1037.5
20260503180830 61 180 2.0 5.0 0.00 0.00 0.00 48 1037.6
20260503180328 61 198 2.0 4.0 0.00 0.00 0.00 45 1037.6
20260503175824 61 219 0.0 5.0 0.00 0.00 0.00 45 1037.7
20260503175322 61 154 3.0 3.0 0.00 0.00 0.00 45 1037.7
20260503174817 60 8 0.0 3.0 0.00 0.00 0.00 45 1037.7
20260503174316 61 132 2.0 3.0 0.00 0.00 0.00 47 1038.1
20260503173811 59 37 2.0 2.0 0.00 0.00 0.00 45 1037.8
20260503173308 59 153 3.0 6.0 0.00 0.00 0.00 44 1038.1
20260503172805 58 194 2.0 3.0 0.00 0.00 0.00 44 1038.0
20260503172304 58 152 4.0 5.0 0.00 0.00 0.00 44 1038.4
20260503171758 58 192 1.0 4.0 0.00 0.00 0.00 46 1038.0
20260503171255 58 167 3.0 3.0 0.00 0.00 0.00 51 1038.1
20260503170752 58 127 4.0 5.0 0.00 0.00 0.00 51 1038.4
20260503170249 57 188 2.0 4.0 0.00 0.00 0.00 48 1038.2
20260503160211 55 172 0.0 2.0 0.00 0.00 0.00 49 1039.1
20260503150641 52 150 2.0 5.0 0.00 0.00 0.00 53 1039.4
20260503150137 52 173 0.0 3.0 0.00 0.00 0.00 53 1039.6
20260503131031 48 157 0.0 2.0 0.00 0.00 0.00 76 1039.1
20260503130528 47 160 0.0 1.0 0.00 0.00 0.00 74 1039.3
20260503110419 44 29 0.0 0.0 0.00 0.00 0.00 84 1037.9
20260503090304 46 15 0.0 0.0 0.00 0.00 0.00 82 1037.2
20260503081237 48 172 0.0 1.0 0.00 0.00 0.00 78 1036.5
20260503080732 48 151 0.0 1.0 0.00 0.00 0.00 78 1036.5
20260503080230 48 165 0.0 1.0 0.00 0.00 0.00 77 1036.6
20260503072706 49 140 0.0 0.0 0.00 0.00 0.00 73 1036.0
20260503072203 49 151 0.0 1.0 0.00 0.00 0.00 74 1036.3
20260503071700 48 82 0.0 0.0 0.00 0.00 0.00 74 1036.1
20260503071157 49 82 0.0 2.0 0.00 0.00 0.00 78 1036.0
20260503070653 49 45 2.0 2.0 0.00 0.00 0.00 77 1036.0
20260503070152 49 123 0.0 2.0 0.00 0.00 0.00 75 1035.9
20260503060116 51 99 0.0 0.0 0.00 0.00 0.00 67 1035.9
20260503055107 51 66 0.0 0.0 0.00 0.00 0.00 65 1035.9
20260503054603 51 106 0.0 0.0 0.00 0.00 0.00 64 1035.9
20260503054100 51 98 0.0 0.0 0.00 0.00 0.00 65 1035.8
20260503053558 51 69 0.0 1.0 0.00 0.00 0.00 65 1036.0
20260503053056 51 66 0.0 1.0 0.00 0.00 0.00 65 1035.9
20260503052552 51 29 0.0 2.0 0.00 0.00 0.00 65 1035.9
20260503052049 51 75 1.0 1.0 0.00 0.00 0.00 64 1036.0
20260503051544 51 107 0.0 0.0 0.00 0.00 0.00 64 1035.7
20260503051042 51 131 0.0 2.0 0.00 0.00 0.00 64 1035.9
20260503050538 51 82 0.0 0.0 0.00 0.00 0.00 66 1035.8
20260503050036 51 99 0.0 0.0 0.00 0.00 0.00 65 1035.7
20260503045532 51 54 0.0 1.0 0.00 0.00 0.00 67 1035.7
20260503045030 51 45 0.0 2.0 0.00 0.00 0.00 65 1035.9
20260503044526 51 74 0.0 1.0 0.00 0.00 0.00 66 1035.7
20260503044024 51 48 0.0 0.0 0.00 0.00 0.00 64 1035.8
20260503043520 51 345 0.0 0.0 0.00 0.00 0.00 64 1035.8
20260503043017 51 33 0.0 0.0 0.00 0.00 0.00 63 1035.8
20260503042514 51 33 0.0 0.0 0.00 0.00 0.00 64 1035.7
20260503042010 51 33 0.0 0.0 0.00 0.00 0.00 64 1035.6
20260503041507 51 33 0.0 0.0 0.00 0.00 0.00 63 1035.4
20260503041005 52 33 0.0 0.0 0.00 0.00 0.00 62 1035.6
20260503040502 52 33 0.0 0.0 0.00 0.00 0.00 62 1035.5
20260503035958 52 66 1.0 2.0 0.00 0.00 0.00 65 1035.6
20260503035455 52 120 0.0 0.0 0.00 0.00 0.00 61 1035.6
20260503034953 52 120 0.0 0.0 0.00 0.00 0.00 63 1035.7
20260503034450 52 120 0.0 0.0 0.00 0.00 0.00 62 1035.5
20260503033947 52 120 0.0 0.0 0.00 0.00 0.00 63 1035.5
20260503033444 52 98 0.0 2.0 0.00 0.00 0.00 61 1035.4
20260503032943 52 132 2.0 2.0 0.00 0.00 0.00 61 1035.4
20260503032441 52 146 3.0 3.0 0.00 0.00 0.00 61 1035.4
20260503031938 52 114 0.0 2.0 0.00 0.00 0.00 60 1035.5
20260503031436 52 16 0.0 0.0 0.00 0.00 0.00 60 1035.5
20260503030932 52 20 1.0 1.0 0.00 0.00 0.00 60 1035.5
20260503030429 52 8 0.0 0.0 0.00 0.00 0.00 61 1035.4
20260503025926 52 8 0.0 0.0 0.00 0.00 0.00 61 1035.2
20260503025422 52 15 0.0 2.0 0.00 0.00 0.00 61 1035.2
20260503024920 52 8 0.0 0.0 0.00 0.00 0.00 60 1035.2
20260503024416 52 106 0.0 0.0 0.00 0.00 0.00 61 1035.3
20260503023914 52 106 0.0 0.0 0.00 0.00 0.00 61 1035.1
20260503023411 52 90 0.0 0.0 0.00 0.00 0.00 60 1035.1
20260503022908 52 90 0.0 0.0 0.00 0.00 0.00 61 1035.2
20260503022402 52 66 0.0 0.0 0.00 0.00 0.00 60 1035.0
20260503021858 52 66 0.0 0.0 0.00 0.00 0.00 59 1035.1
20260503021354 52 66 0.0 0.0 0.00 0.00 0.00 59 1034.8
20260503020851 52 66 0.0 0.0 0.00 0.00 0.00 59 1034.7
20260503020350 53 66 0.0 0.0 0.00 0.00 0.00 59 1034.7
20260503015846 53 66 0.0 0.0 0.00 0.00 0.00 58 1034.6
20260503015343 53 140 0.0 0.0 0.00 0.00 0.00 58 1034.7
20260503014838 53 140 0.0 2.0 0.00 0.00 0.00 58 1034.6
20260503014336 53 23 0.0 0.0 0.00 0.00 0.00 57 1034.4
20260503013833 53 23 0.0 0.0 0.00 0.00 0.00 57 1034.4
20260503013331 53 23 0.0 0.0 0.00 0.00 0.00 57 1034.2
20260503012828 53 23 0.0 1.0 0.00 0.00 0.00 57 1034.0
20260503012326 54 154 0.0 0.0 0.00 0.00 0.00 57 1034.2
20260503011822 54 154 0.0 0.0 0.00 0.00 0.00 56 1033.8
20260503011319 54 154 0.0 0.0 0.00 0.00 0.00 56 1033.8
20260503010815 54 154 0.0 0.0 0.00 0.00 0.00 56 1033.9
20260503010313 54 154 0.0 0.0 0.00 0.00 0.00 55 1033.8
20260503005809 54 154 0.0 0.0 0.00 0.00 0.00 55 1033.8
20260503005307 54 154 0.0 0.0 0.00 0.00 0.00 55 1033.6
20260503004803 54 154 0.0 1.0 0.00 0.00 0.00 54 1033.6
20260503004301 55 165 0.0 2.0 0.00 0.00 0.00 53 1033.5
20260503003758 55 172 0.0 3.0 0.00 0.00 0.00 53 1033.3
20260503003255 55 165 0.0 2.0 0.00 0.00 0.00 53 1033.3
20260503002752 56 159 2.0 3.0 0.00 0.00 0.00 52 1033.3
20260503002248 56 149 3.0 3.0 0.00 0.00 0.00 51 1033.2
20260503001745 57 157 1.0 3.0 0.00 0.00 0.00 50 1033.1
20260503001241 57 151 1.0 3.0 0.00 0.00 0.00 49 1033.1
20260503000739 57 168 0.0 3.0 0.00 0.00 0.00 48 1032.9
20260503000236 57 180 2.0 4.0 0.00 0.00 0.00 48 1032.9
20260502235733 58 180 2.0 3.0 0.00 0.00 0.00 49 1032.9
20260502235231 58 109 3.0 3.0 0.00 0.00 0.00 49 1032.8
20260502234727 58 148 3.0 3.0 0.00 0.00 0.00 48 1032.7
20260502234225 57 162 2.0 3.0 0.00 0.00 0.00 49 1032.5
20260502233720 57 186 0.0 3.0 0.00 0.00 0.00 47 1032.6
20260502233217 57 150 3.0 4.0 0.00 0.00 0.00 47 1032.6
20260502232713 58 171 0.0 4.0 0.00 0.00 0.00 47 1032.6
20260502232210 58 148 3.0 4.0 0.00 0.00 0.00 48 1032.6
20260502231707 58 169 2.0 4.0 0.00 0.00 0.00 47 1032.6
20260502231205 58 172 0.0 3.0 0.00 0.00 0.00 49 1032.5
20260502230703 58 185 0.0 2.0 0.00 0.00 0.00 48 1032.7
20260502230201 58 164 0.0 3.0 0.00 0.00 0.00 49 1032.5
20260502225656 59 180 1.0 2.0 0.00 0.00 0.00 49 1032.5
20260502225154 59 180 2.0 3.0 0.00 0.00 0.00 48 1032.8
20260502224650 59 194 1.0 3.0 0.00 0.00 0.00 48 1032.5
20260502224147 60 173 0.0 1.0 0.00 0.00 0.00 47 1032.7